Regional Weather Roundup
Issued by NWS

Home | Current Version | Previous Version | Graphics & Text | Print | Product List | Glossary On
Versions: 1 2 3 4 5 6 7 8 9 10 11 12 13 14 15 16 17 18 19 20 21 22 23 24 25 26 27 28 29 30 31 32 33 34 35 36 37 38 39 40 41 42 43 44 45 46 47 48 49 50
000
ASUS43 KDTX 301310
RWRMI
MICHIGAN HOURLY REGIONAL WEATHER ROUNDUP
NATIONAL WEATHER SERVICE DETROIT/PONTIAC MI
900 AM EDT SUN APR 30 2017

NOTE: "FAIR" INDICATES FEW OR NO CLOUDS BELOW 12,000 FEET WITH NO
SIGNIFICANT WEATHER AND/OR OBSTRUCTION TO VISIBILITY.

MIZ047>049-052>055-059>063-066>070-074>076-081>083-301400-
SOUTHEAST LOWER MICHIGAN

CITY           SKY/WX    TMP DP  RH WIND       PRES   REMARKS
ADRIAN         CLOUDY    45  43  93 E9        29.99S
ALMA           LGT RAIN  41  40  97 NE15G25   30.06F
ANN ARBOR      CLOUDY    46  41  82 NE9       30.00F
BAD AXE        LGT RAIN  38  37  95 NE16      30.12F WCI  29
CARO           DRIZZLE   40  38  95 NE9       30.09F WCI  34
DETROIT CITY   CLOUDY    46  41  82 E12       30.03F
DETROIT        CLOUDY    47  41  80 E9        30.03F
FLINT          CLOUDY    43  40  89 E15       30.06F
GROSSE ILE     CLOUDY    47  42  84 E10       30.00S
HILLSDALE      CLOUDY    45  41  87 E13       29.96F FOG
HOWELL         CLOUDY    43  39  85 E9        30.02F

CITY           SKY/WX    TMP DP  RH WIND       PRES   REMARKS
JACKSON        CLOUDY    45  42  89 E10       29.99F
LAMBERTVILLE   CLOUDY    49  46  92 E7        29.98S
LANSING        CLOUDY    43  39  86 E13       30.01F
LAPEER         DRIZZLE   42  40  93 E6        30.06F
MASON          CLOUDY    43  41  93 E7        30.00F
MONROE         CLOUDY    48  44  86 E12G17    30.00S
MT. CLEMENS    CLOUDY    46  40  79 NE12      30.03F
PONTIAC        CLOUDY    43  38  82 E12       30.03R
PORT HOPE        N/A     39  38  96 NE30      30.14F WCI  27
PORT HURON     CLOUDY    45  37  76 NE9       30.06F
TRI CITIES     LGT RAIN  42  40  92 E17       30.08F FOG
MIDLAND        RAIN      41  38  90 NE15G22   30.08F
TROY           CLOUDY    46  38  74 NE10      30.06R
SAGINAW HB     DRIZZLE   41  36  81 NE15G22   30.09R
$$
MIZ043>046-050>051-056>058-064>065-071>073-077>080-301400-
SOUTHWEST LOWER MICHIGAN

CITY           SKY/WX    TMP DP  RH WIND       PRES   REMARKS
BATTLE CREEK   CLOUDY    45  43  93 E10       29.96F
BENTON HARBOR  LGT RAIN  46  43  89 E10       29.90F FOG
BIG RAPIDS     FLURRIES  38  36  90 E16G24    30.04F WCI  29
COLDWATER      DRIZZLE   46  45  95 E9        29.94F
FREMONT        CLOUDY    41  39  93 E15G25    29.99F
HOLLAND        LGT RAIN  43  40  89 E14G23    29.96F FOG
GRAND RAPIDS   CLOUDY    42  42 100 E15       29.99F
IONIA          CLOUDY    41  39  93 NE15G21   30.02F
KALAMAZOO      LGT RAIN  45  41  86 E6        29.95F FOG
LUDINGTON      CLOUDY    40  39  95 E16G23    30.01F WCI  32
MARSHALL       CLOUDY    45  44  96 E10       29.96F
MOUNT PLEASANT LGT RAIN  39  37  93 NE12      30.07F WCI  32
MUSKEGON       CLOUDY    43  41  93 E18G26    29.98F
SOUTH HAVEN    RAIN      43  42  97 E9        29.92F
$$
MIZ016>042-301400-
NORTHERN LOWER MICHIGAN

CITY           SKY/WX    TMP DP  RH WIND       PRES   REMARKS
ALPENA         LGT RAIN  35  34  96 E16G23    30.23F FOG     WCI  25
BEAVER ISLAND  CLOUDY    40  31  68 E14G21    30.20F WCI  33
BELLAIRE       CLOUDY    37  33  85 NE8       30.16S WCI  31
CADILLAC       CLOUDY    36  35  95 E18G26    30.06F WCI  26
CHARLEVOIX     CLOUDY    37  33  82 E15       30.20F WCI  28
FRANKFORT      CLOUDY    39  34  84 E9G20     30.09F HAZE    WCI  32
GAYLORD        CLOUDY    35  32  88 E13G21    30.15F WCI  26
GRAYLING       LGT SNOW  34  33  94 E13G20    30.14F WCI  25
HARBOR SPRINGS CLOUDY    36  32  87 E14G23    30.19F WCI  27
HOUGHTON LAKE  CLOUDY    36  33  89 E16       30.11F WCI  26
MANISTEE       LGT RAIN  40  38  93 E15G21    30.03F WCI  32
OSCODA         MIX PCPN  38  36  94 E17G25    30.19F WCI  28
PELLSTON       CLOUDY    38  30  73 E21G30    30.21F WCI  28
ROGERS CITY    MIX PCPN  36  31  85 E15G22    30.25F WCI  26
TRAVERSE CITY  CLOUDY    39  35  86 E8        30.12F FOG     WCI  33
$$
MIZ007>008-015-301400-
EASTERN UPPER MICHIGAN

CITY           SKY/WX    TMP DP  RH WIND       PRES   REMARKS
KINROSS        CLOUDY    41  23  48 E16       30.22F
MACKINAC ISLAN LGT RAIN  37  29  73 E14G22    30.21F WCI  29
NEWBERRY       MOSUNNY   42  27  55 E15       30.19F
S. S. MARIE    MOSUNNY   42  21  43 E9        30.24F
MUNISING         N/A     44  26  49 E8G20     30.18F
$$
MIZ004>006-011>014-085-301400-
CENTRAL UPPER MICHIGAN

CITY           SKY/WX    TMP DP  RH WIND       PRES   REMARKS
MANISTIQUE     MOSUNNY   43  25  48 E16G22    30.18F
ESCANABA       CLOUDY    43  32  65 E16       30.17F
MENOMINEE      CLOUDY    41  34  76 E15G25    30.14F
SAWYER-GWINN   SUNNY     37  30  75 E10       30.17F WCI  30
$$
MIZ001>003-009>011-084-301400-
WESTERN UPPER MICHIGAN

CITY           SKY/WX    TMP DP  RH WIND       PRES   REMARKS
IRON MOUNTAIN  CLOUDY    41  27  57 E9G20     30.13F
HOUGHTON       CLOUDY    39  29  67 E12       30.18F WCI  32
COPPER HARBOR    N/A     42  28  57 S9        30.22F
IRONWOOD       CLOUDY    38  21  50 E12       30.13F WCI  30
$$

ABBREVIATIONS USED IN REMARKS
   TC - TEMPERATURE IN CELSIUS
  WCI - WIND CHILL INDEX
   HX - HEAT INDEX
  VSB - VISIBILITY




USA.gov is the U.S. government's official web portal to all federal, state and local government web resources and services.